Location: *
(35.8942°N, 23.3025°E)
Time: 22:49:54
(UTC+00:00)

Cosmos 2237 Rocket - Pass Details

Date: 21 September 2021
Orbit: 833 x 851 km, 71.0° (Epoch: 22 October)

Event Time Altitude Azimuth Distance (km) Brightness Sun altitude
Exits shadow 01:07:41 30° 90° (E) 1,477 3.8 -36.6°
Drops below altitude 10° 01:11:55 10° 43° (NE) 2,474 5.4 -35.8°
Sets 01:14:38 0° 33° (NNE) 3,415 6.2 -35.4°
